Satellite-Ground Cal/Val Site Overpasses Predictions

Prediction of Satellite NPP Overpassing Cal/Val Site: Antarctic Dome C

Ground Cal/Val Site Location: Latitude: -75.10, Longitude: 123.35; Satellite-Ground Site NADIR distance within 100 km.

Table of predicted overpasses for the next 14.0 days since TLE Epoch: 8/18/2013
Interval Starting Time Ending Time Minimum Distance Time Minimum Distance (km)
1 08/19/2013 15:01:29 08/19/2013 15:01:52 08/19/2013 15:01:41 61.76
2 08/20/2013 14:42:40 08/20/2013 14:43:06 08/20/2013 14:42:53 47.35
3 08/21/2013 07:44:22 08/21/2013 07:44:43 08/21/2013 07:44:33 68.90
4 08/22/2013 07:25:31 08/22/2013 07:25:58 08/22/2013 07:25:44 38.91
5 08/24/2013 15:08:04 08/24/2013 15:08:05 08/24/2013 15:08:04 99.78
6 08/25/2013 14:49:01 08/25/2013 14:49:30 08/25/2013 14:49:16 11.60
7 08/27/2013 07:31:52 08/27/2013 07:32:22 08/27/2013 07:32:07 2.20
8 08/30/2013 14:55:23 08/30/2013 14:55:52 08/30/2013 14:55:37 25.35
9 08/31/2013 14:36:42 08/31/2013 14:36:58 08/31/2013 14:36:50 81.75
